04-04-2022, 00:00:03,    207,    0.2,    3.9,   0.00,   0.00, 1015.6,   70.1, -999.0
04-04-2022, 00:00:13,    201,    1.0,    4.0,   0.00,   0.00, 1015.7,   70.3, -999.0
04-04-2022, 00:00:23,    262,    1.6,    4.0,   0.00,   0.00, 1015.6,   70.3, -999.0
04-04-2022, 00:00:33,    246,    2.9,    4.0,   0.00,   0.00, 1015.7,   70.4, -999.0
04-04-2022, 00:00:43,    193,    1.1,    4.0,   0.00,   0.00, 1015.6,   70.3, -999.0
04-04-2022, 00:00:53,    292,    1.5,    4.0,   0.00,   0.00, 1015.6,   70.3, -999.0
04-04-2022, 00:01:03,    247,    4.6,    4.0,   0.00,   0.00, 1015.7,   70.3, -999.0
04-04-2022, 00:01:13,    215,    2.5,    4.0,   0.00,   0.00, 1015.7,   70.2, -999.0
04-04-2022, 00:01:23,    225,    4.2,    4.0,   0.00,   0.00, 1015.7,   70.3, -999.0
04-04-2022, 00:01:33,    253,    4.6,    4.0,   0.00,   0.00, 1015.6,   70.3, -999.0
04-04-2022, 00:01:43,    192,    4.4,    4.0,   0.00,   0.00, 1015.6,   70.2, -999.0
04-04-2022, 00:01:52,    249,    3.4,    4.0,   0.00,   0.00, 1015.6,   70.1, -999.0
04-04-2022, 00:02:03,    253,    2.8,    4.0,   0.00,   0.00, 1015.6,   70.1, -999.0
04-04-2022, 00:02:13,    234,    2.9,    3.8,   0.00,   0.00, 1015.6,   70.2, -999.0
04-04-2022, 00:02:22,    235,    2.5,    3.9,   0.00,   0.00, 1015.6,   70.1, -999.0
04-04-2022, 00:02:33,    197,    3.3,    4.0,   0.00,   0.00, 1015.7,   70.1, -999.0
04-04-2022, 00:02:42,    237,    3.4,    4.0,   0.00,   0.00, 1015.6,   70.1, -999.0
04-04-2022, 00:02:52,    235,    1.4,    4.0,   0.00,   0.00, 1015.6,   70.2, -999.0
04-04-2022, 00:03:02,    207,    1.2,    4.0,   0.00,   0.00, 1015.6,   70.2, -999.0
04-04-2022, 00:03:14,    239,    4.9,    4.0,   0.00,   0.00, 1015.6,   70.1, -999.0
04-04-2022, 00:03:22,    235,    3.1,    3.9,   0.00,   0.00, 1015.6,   70.1, -999.0
04-04-2022, 00:03:32,    249,    2.3,    4.0,   0.00,   0.00, 1015.6,   70.2, -999.0
04-04-2022, 00:03:42,    239,    4.2,    4.0,   0.00,   0.00, 1015.6,   70.0, -999.0
04-04-2022, 00:03:52,    211,    2.2,    3.9,   0.00,   0.00, 1015.6,   70.1, -999.0
04-04-2022, 00:04:02,    230,    1.4,    4.0,   0.00,   0.00, 1015.6,   70.0, -999.0
04-04-2022, 00:04:12,    244,    2.0,    4.0,   0.00,   0.00, 1015.6,   70.1, -999.0
04-04-2022, 00:04:22,    241,    2.8,    4.0,   0.00,   0.00, 1015.6,   70.1, -999.0
04-04-2022, 00:04:32,    244,    1.1,    4.0,   0.00,   0.00, 1015.6,   70.0, -999.0
04-04-2022, 00:04:42,    245,    0.1,    3.9,   0.00,   0.00, 1015.5,   69.8, -999.0
04-04-2022, 00:04:52,    232,    1.7,    4.0,   0.00,   0.00, 1015.6,   70.0, -999.0
04-04-2022, 00:05:02,    241,    2.3,    4.0,   0.00,   0.00, 1015.6,   70.1, -999.0
04-04-2022, 00:05:12,    220,    1.3,    3.9,   0.00,   0.00, 1015.6,   70.0, -999.0
04-04-2022, 00:05:22,    216,    1.2,    4.0,   0.00,   0.00, 1015.6,   70.1, -999.0
04-04-2022, 00:05:31,    244,    4.0,    4.1,   0.00,   0.00, 1015.6,   69.9, -999.0
04-04-2022, 00:05:42,    224,    3.6,    4.1,   0.00,   0.00, 1015.6,   70.2, -999.0
04-04-2022, 00:05:52,    238,    3.3,    4.1,   0.00,   0.00, 1015.6,   70.1, -999.0
04-04-2022, 00:06:01,    223,    3.7,    4.0,   0.00,   0.00, 1015.6,   70.1, -999.0
04-04-2022, 00:06:11,    240,    2.4,    4.0,   0.00,   0.00, 1015.6,   70.1, -999.0
04-04-2022, 00:06:22,    272,    1.8,    4.0,   0.00,   0.00, 1015.6,   70.0, -999.0
04-04-2022, 00:06:31,    266,    0.7,    3.9,   0.00,   0.00, 1015.5,   69.9, -999.0
04-04-2022, 00:06:41,    251,    1.9,    4.0,   0.00,   0.00, 1015.5,   69.9, -999.0
04-04-2022, 00:06:51,    258,    1.7,    4.0,   0.00,   0.00, 1015.6,   70.1, -999.0
04-04-2022, 00:07:01,    260,    1.6,    4.0,   0.00,   0.00, 1015.6,   70.0, -999.0
04-04-2022, 00:07:11,    181,    0.5,    4.0,   0.00,   0.00, 1015.5,   70.0, -999.0
04-04-2022, 00:07:21,    187,    0.1,    3.9,   0.00,   0.00, 1015.4,   69.8, -999.0
04-04-2022, 00:07:31,    260,    0.6,    3.9,   0.00,   0.00, 1015.5,   70.0, -999.0
04-04-2022, 00:07:41,    246,    1.4,    3.9,   0.00,   0.00, 1015.6,   70.0, -999.0
04-04-2022, 00:07:51,    284,    1.1,    4.0,   0.00,   0.00, 1015.5,   70.1, -999.0
04-04-2022, 00:08:01,    284,    0.3,    4.0,   0.00,   0.00, 1015.5,   69.9, -999.0
04-04-2022, 00:08:11,    194,    0.4,    4.0,   0.00,   0.00, 1015.5,   69.9, -999.0
04-04-2022, 00:08:21,    249,    0.3,    4.0,   0.00,   0.00, 1015.4,   69.9, -999.0
04-04-2022, 00:08:31,    283,    1.8,    4.0,   0.00,   0.00, 1015.5,   70.1, -999.0
04-04-2022, 00:08:40,    187,    0.3,    3.9,   0.00,   0.00, 1015.4,   69.8, -999.0
04-04-2022, 00:08:51,    260,    1.1,    4.0,   0.00,   0.00, 1015.5,   70.0, -999.0
04-04-2022, 00:09:01,    270,    0.5,    3.9,   0.00,   0.00, 1015.4,   69.8, -999.0
04-04-2022, 00:09:10,    239,    2.1,    4.0,   0.00,   0.00, 1015.5,   69.9, -999.0
04-04-2022, 00:09:21,    237,    1.5,    4.0,   0.00,   0.00, 1015.5,   69.9, -999.0
04-04-2022, 00:09:31,    240,    4.1,    4.1,   0.00,   0.00, 1015.5,   69.8, -999.0
04-04-2022, 00:09:40,    278,    3.6,    4.0,   0.00,   0.00, 1015.5,   69.7, -999.0
04-04-2022, 00:09:50,    204,    1.8,    4.0,   0.00,   0.00, 1015.4,   69.8, -999.0
04-04-2022, 00:10:01,    206,    0.6,    4.0,   0.00,   0.00, 1015.4,   69.6, -999.0
04-04-2022, 00:10:10,    209,    0.2,    4.0,   0.00,   0.00, 1015.4,   69.6, -999.0
04-04-2022, 00:10:20,    235,    1.6,    4.0,   0.00,   0.00, 1015.4,   69.9, -999.0
04-04-2022, 00:10:30,    194,    2.3,    3.9,   0.00,   0.00, 1015.4,   69.9, -999.0
04-04-2022, 00:10:40,    212,    0.7,    4.0,   0.00,   0.00, 1015.4,   69.7, -999.0
04-04-2022, 00:10:50,    213,    0.0,    4.0,   0.00,   0.00, 1015.3,   69.5, -999.0
04-04-2022, 00:11:00,    233,    1.9,    3.9,   0.00,   0.00, 1015.5,   69.7, -999.0
04-04-2022, 00:11:10,    244,    3.2,    4.0,   0.00,   0.00, 1015.5,   69.8, -999.0
04-04-2022, 00:11:20,    272,    3.1,    4.1,   0.00,   0.00, 1015.5,   69.8, -999.0
04-04-2022, 00:11:30,    253,    2.7,    4.1,   0.00,   0.00, 1015.5,   69.7, -999.0
04-04-2022, 00:11:40,    209,    0.5,    4.1,   0.00,   0.00, 1015.4,   69.7, -999.0
04-04-2022, 00:11:50,    196,    0.8,    4.1,   0.00,   0.00, 1015.4,   69.8, -999.0
04-04-2022, 00:12:00,    299,    0.7,    4.0,   0.00,   0.00, 1015.4,   69.6, -999.0
04-04-2022, 00:12:10,    262,    1.9,    4.1,   0.00,   0.00, 1015.5,   69.7, -999.0
04-04-2022, 00:12:20,    226,    2.4,    4.1,   0.00,   0.00, 1015.5,   69.7, -999.0
04-04-2022, 00:12:30,    247,    4.7,    4.1,   0.00,   0.00, 1015.4,   69.5, -999.0
04-04-2022, 00:12:40,    241,    3.7,    4.1,   0.00,   0.00, 1015.5,   69.4, -999.0
04-04-2022, 00:12:49,    228,    3.6,    4.0,   0.00,   0.00, 1015.4,   69.5, -999.0
04-04-2022, 00:12:59,    257,    2.5,    4.0,   0.00,   0.00, 1015.5,   69.4, -999.0
04-04-2022, 00:13:10,    247,    2.1,    4.1,   0.00,   0.00, 1015.4,   69.5, -999.0
04-04-2022, 00:13:19,    200,    2.4,    4.1,   0.00,   0.00, 1015.4,   69.6, -999.0
04-04-2022, 00:13:29,    230,    2.6,    4.1,   0.00,   0.00, 1015.4,   69.5, -999.0
04-04-2022, 00:13:40,    262,    4.5,    4.1,   0.00,   0.00, 1015.4,   69.5, -999.0
04-04-2022, 00:13:49,    258,    2.8,    4.1,   0.00,   0.00, 1015.4,   69.4, -999.0
04-04-2022, 00:13:59,    246,    3.9,    4.0,   0.00,   0.00, 1015.4,   69.4, -999.0
04-04-2022, 00:14:09,    241,    3.7,    4.1,   0.00,   0.00, 1015.4,   69.5, -999.0
04-04-2022, 00:14:19,    267,    3.6,    4.1,   0.00,   0.00, 1015.4,   69.4, -999.0
04-04-2022, 00:14:29,    224,    4.4,    4.1,   0.00,   0.00, 1015.4,   69.3, -999.0
04-04-2022, 00:14:39,    217,    3.1,    4.0,   0.00,   0.00, 1015.4,   69.2, -999.0
04-04-2022, 00:14:49,    261,    3.1,    4.1,   0.00,   0.00, 1015.4,   69.3, -999.0
04-04-2022, 00:15:09,    241,    2.4,    4.1,   0.00,   0.00, 1015.4,   69.2, -999.0
04-04-2022, 00:15:19,    252,    3.4,    4.1,   0.00,   0.00, 1015.4,   69.2, -999.0
04-04-2022, 00:15:29,    198,    4.9,    4.1,   0.00,   0.00, 1015.4,   69.2, -999.0
04-04-2022, 00:15:39,    269,    2.2,    4.1,   0.00,   0.00, 1015.4,   69.1, -999.0
04-04-2022, 00:15:49,    256,    1.6,    4.1,   0.00,   0.00, 1015.4,   69.1, -999.0
04-04-2022, 00:15:59,    242,    0.9,    4.1,   0.00,   0.00, 1015.4,   69.0, -999.0
04-04-2022, 00:16:09,    218,    0.4,    4.1,   0.00,   0.00, 1015.3,   68.9, -999.0
04-04-2022, 00:16:19,    224,    0.8,    4.1,   0.00,   0.00, 1015.4,   69.1, -999.0
04-04-2022, 00:16:29,    225,    2.1,    4.1,   0.00,   0.00, 1015.4,   69.2, -999.0
04-04-2022, 00:16:38,    246,    2.4,    4.1,   0.00,   0.00, 1015.4,   69.1, -999.0
04-04-2022, 00:16:49,    290,    0.8,    4.1,   0.00,   0.00, 1015.4,   69.1, -999.0
04-04-2022, 00:16:58,    221,    2.1,    4.2,   0.00,   0.00, 1015.3,   69.0, -999.0
04-04-2022, 00:17:08,    280,    2.3,    4.0,   0.00,   0.00, 1015.4,   69.0, -999.0
04-04-2022, 00:17:18,    273,    1.6,    4.1,   0.00,   0.00, 1015.4,   69.1, -999.0
04-04-2022, 00:17:28,    250,    1.6,    4.1,   0.00,   0.00, 1015.3,   69.1, -999.0
04-04-2022, 00:17:38,    248,    0.4,    4.0,   0.00,   0.00, 1015.2,   69.0, -999.0
04-04-2022, 00:17:48,    196,    0.8,    4.0,   0.00,   0.00, 1015.2,   68.9, -999.0
04-04-2022, 00:17:58,    228,    1.9,    4.1,   0.00,   0.00, 1015.3,   69.2, -999.0
04-04-2022, 00:18:08,    202,    1.5,    4.1,   0.00,   0.00, 1015.3,   69.2, -999.0
04-04-2022, 00:18:18,    231,    1.3,    4.1,   0.00,   0.00, 1015.3,   69.2, -999.0
04-04-2022, 00:18:28,    253,    1.7,    4.1,   0.00,   0.00, 1015.3,   69.1, -999.0
04-04-2022, 00:18:38,    233,    1.2,    4.1,   0.00,   0.00, 1015.3,   69.1, -999.0
04-04-2022, 00:18:48,    249,    1.0,    4.1,   0.00,   0.00, 1015.3,   69.0, -999.0
04-04-2022, 00:18:58,    254,    4.2,    4.1,   0.00,   0.00, 1015.3,   69.2, -999.0
04-04-2022, 00:19:08,    248,    3.9,    4.1,   0.00,   0.00, 1015.3,   69.1, -999.0
04-04-2022, 00:19:18,    258,    1.5,    4.0,   0.00,   0.00, 1015.3,   69.1, -999.0
04-04-2022, 00:19:28,    251,    0.3,    4.1,   0.00,   0.00, 1015.2,   69.0, -999.0
04-04-2022, 00:19:38,    192,    0.3,    4.1,   0.00,   0.00, 1015.3,   69.1, -999.0
04-04-2022, 00:19:47,    230,    0.0,    4.0,   0.00,   0.00, 1015.2,   68.9, -999.0
04-04-2022, 00:19:58,    198,    1.5,    4.1,   0.00,   0.00, 1015.4,   69.1, -999.0
04-04-2022, 00:20:08,    221,    4.8,    4.1,   0.00,   0.00, 1015.3,   69.0, -999.0
04-04-2022, 00:20:17,    203,    2.7,    4.1,   0.00,   0.00, 1015.3,   69.0, -999.0
04-04-2022, 00:20:28,    202,    0.6,    4.1,   0.00,   0.00, 1015.3,   68.9, -999.0
04-04-2022, 00:20:37,    233,    0.4,    4.0,   0.00,   0.00, 1015.2,   68.8, -999.0
04-04-2022, 00:20:47,    260,    1.5,    4.1,   0.00,   0.00, 1015.3,   69.0, -999.0
04-04-2022, 00:20:57,    255,    2.8,    4.1,   0.00,   0.00, 1015.3,   69.1, -999.0
04-04-2022, 00:21:07,    275,    2.9,    4.1,   0.00,   0.00, 1015.3,   69.0, -999.0
04-04-2022, 00:21:17,    239,    1.4,    4.1,   0.00,   0.00, 1015.2,   69.0, -999.0
04-04-2022, 00:21:27,    236,    0.2,    4.1,   0.00,   0.00, 1015.2,   68.7, -999.0
04-04-2022, 00:21:37,    193,    0.6,    4.1,   0.00,   0.00, 1015.3,   68.9, -999.0
04-04-2022, 00:21:47,    245,    1.9,    4.1,   0.00,   0.00, 1015.3,   68.9, -999.0
04-04-2022, 00:21:57,    239,    1.3,    4.1,   0.00,   0.00, 1015.3,   69.0, -999.0
04-04-2022, 00:22:07,    264,    0.5,    4.0,   0.00,   0.00, 1015.2,   68.7, -999.0
04-04-2022, 00:22:17,    233,    2.3,    4.1,   0.00,   0.00, 1015.3,   68.9, -999.0
04-04-2022, 00:22:27,    283,    2.3,    4.1,   0.00,   0.00, 1015.3,   68.9, -999.0
04-04-2022, 00:22:37,    238,    5.0,    4.1,   0.00,   0.00, 1015.3,   68.9, -999.0
04-04-2022, 00:22:47,    239,    6.4,    4.1,   0.00,   0.00, 1015.3,   68.8, -999.0
04-04-2022, 00:22:57,    249,    4.8,    4.1,   0.00,   0.00, 1015.2,   68.8, -999.0
04-04-2022, 00:23:07,    219,    2.6,    4.1,   0.00,   0.00, 1015.2,   68.8, -999.0
04-04-2022, 00:23:17,    292,    2.1,    4.1,   0.00,   0.00, 1015.2,   68.7, -999.0
04-04-2022, 00:23:26,    256,    0.5,    4.1,   0.00,   0.00, 1015.2,   68.8, -999.0
04-04-2022, 00:23:37,    228,    3.8,    4.1,   0.00,   0.00, 1015.3,   68.8, -999.0
04-04-2022, 00:23:47,    240,    3.5,    4.1,   0.00,   0.00, 1015.3,   68.8, -999.0
04-04-2022, 00:23:56,    270,    1.4,    4.1,   0.00,   0.00, 1015.2,   68.7, -999.0
04-04-2022, 00:24:06,    224,    1.2,    4.1,   0.00,   0.00, 1015.2,   68.6, -999.0
04-04-2022, 00:24:17,    274,    1.3,    4.1,   0.00,   0.00, 1015.2,   68.7, -999.0
04-04-2022, 00:24:26,    270,    1.5,    4.1,   0.00,   0.00, 1015.2,   68.7, -999.0
04-04-2022, 00:24:36,    250,    3.8,    4.2,   0.00,   0.00, 1015.2,   68.7, -999.0
04-04-2022, 00:24:47,    182,    2.5,    4.1,   0.00,   0.00, 1015.2,   68.7, -999.0
04-04-2022, 00:24:56,    240,    0.4,    4.1,   0.00,   0.00, 1015.2,   68.4, -999.0
04-04-2022, 00:25:06,    258,    1.4,    4.1,   0.00,   0.00, 1015.2,   68.6, -999.0
04-04-2022, 00:25:16,    244,    3.5,    4.1,   0.00,   0.00, 1015.2,   68.6, -999.0
04-04-2022, 00:25:26,    258,    1.7,    4.1,   0.00,   0.00, 1015.2,   68.5, -999.0
04-04-2022, 00:25:36,    234,    1.2,    4.1,   0.00,   0.00, 1015.2,   68.6, -999.0
04-04-2022, 00:25:46,    250,    2.1,    4.1,   0.00,   0.00, 1015.2,   68.6, -999.0
04-04-2022, 00:25:56,    250,    2.9,    4.1,   0.00,   0.00, 1015.2,   68.6, -999.0
04-04-2022, 00:26:06,    250,    2.9,    4.2,   0.00,   0.00, 1015.2,   68.6, -999.0
04-04-2022, 00:26:16,    263,    1.5,    4.2,   0.00,   0.00, 1015.2,   68.7, -999.0
04-04-2022, 00:26:26,    260,    0.8,    4.2,   0.00,   0.00, 1015.2,   68.6, -999.0
04-04-2022, 00:26:36,    205,    0.0,    4.1,   0.00,   0.00, 1015.1,   68.3, -999.0
04-04-2022, 00:26:46,    264,    0.3,    4.2,   0.00,   0.00, 1015.2,   68.4, -999.0
04-04-2022, 00:26:56,    236,    2.3,    4.2,   0.00,   0.00, 1015.2,   68.5, -999.0
04-04-2022, 00:27:05,    194,    1.7,    4.1,   0.00,   0.00, 1015.2,   68.5, -999.0
04-04-2022, 00:27:16,    194,    1.8,    4.1,   0.00,   0.00, 1015.2,   68.6, -999.0
04-04-2022, 00:27:26,    218,    4.0,    4.2,   0.00,   0.00, 1015.2,   68.5, -999.0
04-04-2022, 00:27:35,    242,    2.6,    4.2,   0.00,   0.00, 1015.2,   68.5, -999.0
04-04-2022, 00:27:45,    193,    1.8,    4.2,   0.00,   0.00, 1015.2,   68.5, -999.0
04-04-2022, 00:27:56,    207,    2.1,    4.2,   0.00,   0.00, 1015.2,   68.5, -999.0
04-04-2022, 00:28:05,    216,    5.1,    4.2,   0.00,   0.00, 1015.2,   68.6, -999.0
04-04-2022, 00:28:15,    243,    3.0,    4.2,   0.00,   0.00, 1015.2,   68.5, -999.0
04-04-2022, 00:28:25,    257,    3.2,    4.2,   0.00,   0.00, 1015.2,   68.4, -999.0
04-04-2022, 00:28:35,    215,    3.2,    4.2,   0.00,   0.00, 1015.2,   68.5, -999.0
04-04-2022, 00:28:45,    220,    2.0,    4.2,   0.00,   0.00, 1015.2,   68.5, -999.0
04-04-2022, 00:28:55,    212,    3.5,    4.2,   0.00,   0.00, 1015.2,   68.5, -999.0
04-04-2022, 00:29:05,    270,    0.9,    4.2,   0.00,   0.00, 1015.2,   68.6, -999.0
04-04-2022, 00:29:15,    279,    0.9,    4.2,   0.00,   0.00, 1015.2,   68.6, -999.0
04-04-2022, 00:29:25,    232,    4.0,    4.2,   0.00,   0.00, 1015.2,   68.5, -999.0
04-04-2022, 00:29:35,    244,    5.6,    4.1,   0.00,   0.00, 1015.2,   68.6, -999.0
04-04-2022, 00:29:45,    243,    3.4,    4.1,   0.00,   0.00, 1015.2,   68.5, -999.0
04-04-2022, 00:29:55,    209,    2.5,    4.2,   0.00,   0.00, 1015.2,   68.4, -999.0
04-04-2022, 00:30:05,    258,    1.9,    4.2,   0.00,   0.00, 1015.2,   68.5, -999.0
04-04-2022, 00:30:15,    257,    4.3,    4.2,   0.00,   0.00, 1015.2,   68.5, -999.0
04-04-2022, 00:30:25,    240,    2.4,    4.2,   0.00,   0.00, 1015.2,   68.5, -999.0
04-04-2022, 00:30:35,    239,    2.2,    4.1,   0.00,   0.00, 1015.2,   68.6, -999.0
04-04-2022, 00:30:44,    257,    3.5,    4.1,   0.00,   0.00, 1015.1,   68.6, -999.0
04-04-2022, 00:30:55,    253,    2.6,    4.0,   0.00,   0.00, 1015.1,   68.6, -999.0
04-04-2022, 00:31:05,    246,    3.0,    4.1,   0.00,   0.00, 1015.2,   68.7, -999.0
04-04-2022, 00:31:14,    244,    1.4,    4.1,   0.00,   0.00, 1015.1,   68.7, -999.0
04-04-2022, 00:31:24,    240,    0.4,    4.1,   0.00,   0.00, 1015.1,   68.6, -999.0
04-04-2022, 00:31:35,    203,    1.5,    4.1,   0.00,   0.00, 1015.2,   68.7, -999.0
04-04-2022, 00:31:44,    235,    1.7,    4.0,   0.00,   0.00, 1015.1,   68.7, -999.0
04-04-2022, 00:31:54,    236,    0.7,    4.2,   0.00,   0.00, 1015.1,   68.8, -999.0
04-04-2022, 00:32:04,    261,    0.4,    4.1,   0.00,   0.00, 1015.1,   68.7, -999.0
04-04-2022, 00:32:14,    225,    1.3,    4.2,   0.00,   0.00, 1015.1,   68.9, -999.0
04-04-2022, 00:32:24,    218,    1.9,    4.0,   0.00,   0.00, 1015.1,   68.8, -999.0
04-04-2022, 00:32:34,    218,    2.1,    4.2,   0.00,   0.00, 1015.1,   68.8, -999.0
04-04-2022, 00:32:44,    207,    3.3,    4.2,   0.00,   0.00, 1015.1,   68.9, -999.0
04-04-2022, 00:32:54,    214,    1.2,    4.2,   0.00,   0.00, 1015.1,   68.8, -999.0
04-04-2022, 00:33:04,    258,    0.7,    4.1,   0.00,   0.00, 1015.1,   68.5, -999.0
04-04-2022, 00:33:14,    268,    1.6,    4.1,   0.00,   0.00, 1015.2,   68.8, -999.0
04-04-2022, 00:33:24,    256,    1.8,    4.1,   0.00,   0.00, 1015.2,   68.8, -999.0
04-04-2022, 00:33:34,    239,    4.1,    4.1,   0.00,   0.00, 1015.2,   68.8, -999.0
04-04-2022, 00:33:44,    256,    1.7,    4.1,   0.00,   0.00, 1015.1,   68.8, -999.0
04-04-2022, 00:33:54,    241,    3.3,    4.1,   0.00,   0.00, 1015.1,   68.8, -999.0
04-04-2022, 00:34:04,    266,    3.8,    4.1,   0.00,   0.00, 1015.1,   68.8, -999.0
04-04-2022, 00:34:14,    229,    1.1,    4.1,   0.00,   0.00, 1015.1,   68.8, -999.0
04-04-2022, 00:34:24,    243,    2.6,    4.2,   0.00,   0.00, 1015.1,   68.8, -999.0
04-04-2022, 00:34:33,    247,    4.9,    4.1,   0.00,   0.00, 1015.1,   68.8, -999.0
04-04-2022, 00:34:44,    274,    3.4,    4.1,   0.00,   0.00, 1015.1,   68.8, -999.0
04-04-2022, 00:34:53,    243,    1.7,    4.1,   0.00,   0.00, 1015.1,   68.7, -999.0
04-04-2022, 00:35:03,    255,    1.6,    4.2,   0.00,   0.00, 1015.1,   68.7, -999.0
04-04-2022, 00:35:13,    254,    1.8,    4.1,   0.00,   0.00, 1015.1,   68.9, -999.0
04-04-2022, 00:35:23,    252,    1.1,    4.1,   0.00,   0.00, 1015.1,   68.8, -999.0
04-04-2022, 00:35:33,    243,    1.0,    4.2,   0.00,   0.00, 1015.1,   68.8, -999.0
04-04-2022, 00:35:43,    243,    0.0,    4.1,   0.00,   0.00, 1015.0,   68.6, -999.0
04-04-2022, 00:35:53,    291,    2.3,    4.1,   0.00,   0.00, 1015.1,   69.0, -999.0
04-04-2022, 00:36:03,    273,    0.1,    4.1,   0.00,   0.00, 1015.0,   68.6, -999.0
04-04-2022, 00:36:13,    254,    0.2,    4.0,   0.00,   0.00, 1015.0,   68.7, -999.0
04-04-2022, 00:36:23,    232,    4.3,    4.2,   0.00,   0.00, 1015.1,   69.0, -999.0
04-04-2022, 00:36:33,    260,    2.2,    4.2,   0.00,   0.00, 1015.1,   68.9, -999.0
04-04-2022, 00:36:43,    286,    3.4,    4.2,   0.00,   0.00, 1015.1,   68.8, -999.0
04-04-2022, 00:36:53,    231,    3.8,    4.2,   0.00,   0.00, 1015.1,   68.8, -999.0
04-04-2022, 00:37:03,    201,    1.1,    4.2,   0.00,   0.00, 1015.1,   68.8, -999.0
04-04-2022, 00:37:13,    257,    1.5,    4.2,   0.00,   0.00, 1015.1,   68.8, -999.0
04-04-2022, 00:37:23,    279,    1.5,    4.2,   0.00,   0.00, 1015.1,   68.9, -999.0
04-04-2022, 00:37:33,    275,    0.6,    4.2,   0.00,   0.00, 1015.1,   68.8, -999.0
04-04-2022, 00:37:43,    273,    0.3,    4.1,   0.00,   0.00, 1015.0,   68.6, -999.0
04-04-2022, 00:37:53,    273,    0.4,    4.2,   0.00,   0.00, 1015.0,   68.8, -999.0
04-04-2022, 00:38:03,    263,    0.6,    4.1,   0.00,   0.00, 1015.0,   68.9, -999.0
04-04-2022, 00:38:12,    219,    0.4,    4.1,   0.00,   0.00, 1015.0,   68.7, -999.0
04-04-2022, 00:38:23,    273,    3.0,    4.1,   0.00,   0.00, 1015.1,   68.9, -999.0
04-04-2022, 00:38:33,    280,    2.6,    4.1,   0.00,   0.00, 1015.1,   68.9, -999.0
04-04-2022, 00:38:42,    189,    2.5,    4.2,   0.00,   0.00, 1015.1,   69.0, -999.0
04-04-2022, 00:38:52,    174,    2.9,    4.2,   0.00,   0.00, 1015.1,   69.0, -999.0
04-04-2022, 00:39:02,    255,    2.1,    4.2,   0.00,   0.00, 1015.1,   68.9, -999.0
04-04-2022, 00:39:12,    230,    2.2,    4.2,   0.00,   0.00, 1015.1,   69.0, -999.0
04-04-2022, 00:39:22,    229,    0.5,    4.1,   0.00,   0.00, 1015.0,   68.9, -999.0
04-04-2022, 00:39:32,    251,    2.1,    4.1,   0.00,   0.00, 1015.0,   68.8, -999.0
04-04-2022, 00:39:42,    236,    3.5,    4.2,   0.00,   0.00, 1015.1,   68.9, -999.0
04-04-2022, 00:39:52,    251,    3.0,    4.2,   0.00,   0.00, 1015.0,   68.9, -999.0
04-04-2022, 00:40:02,    251,    0.6,    4.2,   0.00,   0.00, 1015.0,   68.8, -999.0
04-04-2022, 00:40:12,    251,    0.0,    4.1,   0.00,   0.00, 1014.9,   68.7, -999.0
04-04-2022, 00:40:22,    251,    0.0,    4.0,   0.00,   0.00, 1014.9,   68.6, -999.0
04-04-2022, 00:40:32,    236,    0.6,    4.1,   0.00,   0.00, 1015.0,   68.7, -999.0
04-04-2022, 00:40:42,    219,    2.1,    4.2,   0.00,   0.00, 1015.1,   69.0, -999.0
04-04-2022, 00:40:52,    205,    1.4,    4.2,   0.00,   0.00, 1015.0,   68.8, -999.0
04-04-2022, 00:41:02,    260,    0.5,    4.1,   0.00,   0.00, 1015.0,   68.8, -999.0
04-04-2022, 00:41:12,    267,    0.5,    4.2,   0.00,   0.00, 1015.0,   68.8, -999.0
04-04-2022, 00:41:21,    232,    1.9,    4.2,   0.00,   0.00, 1015.0,   68.9, -999.0
04-04-2022, 00:41:32,    230,    1.1,    4.2,   0.00,   0.00, 1015.0,   69.1, -999.0
04-04-2022, 00:41:42,    232,    0.2,    4.1,   0.00,   0.00, 1014.9,   68.6, -999.0
04-04-2022, 00:41:51,    250,    2.7,    4.2,   0.00,   0.00, 1015.0,   69.0, -999.0
04-04-2022, 00:42:01,    194,    3.7,    4.2,   0.00,   0.00, 1015.0,   69.0, -999.0
04-04-2022, 00:42:12,    237,    4.7,    4.2,   0.00,   0.00, 1015.1,   69.0, -999.0
04-04-2022, 00:42:21,    285,    4.4,    4.2,   0.00,   0.00, 1015.0,   69.1, -999.0
04-04-2022, 00:42:31,    258,    4.9,    4.2,   0.00,   0.00, 1015.0,   69.0, -999.0
04-04-2022, 00:42:41,    190,    2.2,    4.2,   0.00,   0.00, 1015.0,   69.0, -999.0
04-04-2022, 00:42:51,    229,    1.6,    4.2,   0.00,   0.00, 1015.0,   69.1, -999.0
04-04-2022, 00:43:01,    269,    0.8,    4.2,   0.00,   0.00, 1015.0,   69.0, -999.0
04-04-2022, 00:43:11,    210,    3.3,    4.2,   0.00,   0.00, 1015.0,   69.2, -999.0
04-04-2022, 00:43:21,    231,    2.6,    4.2,   0.00,   0.00, 1015.0,   69.0, -999.0
04-04-2022, 00:43:31,    268,    2.7,    4.2,   0.00,   0.00, 1015.0,   69.0, -999.0
04-04-2022, 00:43:41,    260,    0.7,    4.2,   0.00,   0.00, 1014.9,   68.9, -999.0
04-04-2022, 00:43:51,    137,    0.0,    4.1,   0.00,   0.00, 1014.9,   68.9, -999.0
04-04-2022, 00:44:01,    248,    1.7,    4.2,   0.00,   0.00, 1015.0,   69.1, -999.0
04-04-2022, 00:44:11,    245,    1.6,    4.2,   0.00,   0.00, 1015.0,   69.1, -999.0
04-04-2022, 00:44:21,    267,    1.6,    4.2,   0.00,   0.00, 1015.0,   69.2, -999.0
04-04-2022, 00:44:31,    209,    1.4,    4.3,   0.00,   0.00, 1015.0,   69.1, -999.0
04-04-2022, 00:44:41,    207,    2.2,    4.2,   0.00,   0.00, 1015.0,   69.2, -999.0
04-04-2022, 00:44:51,    261,    1.6,    4.2,   0.00,   0.00, 1015.0,   69.2, -999.0
04-04-2022, 00:45:01,    243,    1.0,    4.2,   0.00,   0.00, 1014.9,   69.3, -999.0
04-04-2022, 00:45:11,    276,    0.8,    4.2,   0.00,   0.00, 1014.9,   69.1, -999.0
04-04-2022, 00:45:21,    267,    1.0,    4.2,   0.00,   0.00, 1014.9,   69.2, -999.0
04-04-2022, 00:45:30,    253,    0.7,    4.2,   0.00,   0.00, 1014.9,   69.1, -999.0
04-04-2022, 00:45:40,    193,    0.8,    4.2,   0.00,   0.00, 1014.9,   69.1, -999.0
04-04-2022, 00:45:51,    259,    0.3,    4.2,   0.00,   0.00, 1014.9,   69.0, -999.0
04-04-2022, 00:46:00,    247,    2.3,    4.1,   0.00,   0.00, 1014.9,   69.2, -999.0
04-04-2022, 00:46:10,    234,    1.3,    4.3,   0.00,   0.00, 1014.9,   69.3, -999.0
04-04-2022, 00:46:20,    274,    1.2,    4.2,   0.00,   0.00, 1014.9,   69.3, -999.0
04-04-2022, 00:46:30,    243,    0.4,    4.2,   0.00,   0.00, 1014.9,   69.1, -999.0
04-04-2022, 00:46:40,    207,    0.7,    4.2,   0.00,   0.00, 1014.9,   69.2, -999.0
04-04-2022, 00:46:50,    235,    1.6,    4.2,   0.00,   0.00, 1014.9,   69.3, -999.0